Regional Weather Roundup
Issued by NWS

Home | Current Version | Previous Version | Graphics & Text | Print | Product List | Glossary On
Versions: 1 2 3 4 5 6 7 8 9 10 11 12 13 14 15 16 17 18 19 20 21 22 23 24 25 26 27 28 29 30 31 32 33 34 35 36 37 38 39 40 41 42 43 44 45 46 47 48 49 50
000
ASUS43 KFSD 012210
RWRSD

WEATHER ROUNDUP FOR SOUTH DAKOTA
NATIONAL WEATHER SERVICE SIOUX FALLS SD
400 PM CST SUN MAR 01 2015

NOTE: "FAIR" INDICATES FEW OR NO CLOUDS BELOW 12,000 FEET WITH NO
SIGNIFICANT WEATHER AND/OR OBSTRUCTIONS TO VISIBILITY.


SDZ001>005-009-010-012>017-012300-
NORTHWEST AND NORTH CENTRAL SOUTH DAKOTA

CITY           SKY/WX    TMP DP  RH WIND       PRES   REMARKS
BUFFALO          N/A     24  10  55 NW17      30.21R WCI  11
FAITH            N/A     28   8  43 NW14      30.28R WCI  17
MOBRIDGE       CLOUDY    31  16  54 NW15      30.27S WCI  20
$$

SDZ012>016-024>037-041>051-057-063-072>074-012300-
SOUTHWEST AND SOUTH CENTRAL SOUTH DAKOTA

CITY           SKY/WX    TMP DP  RH WIND       PRES   REMARKS
RAPID CTY ARPT SUNNY     28  13  53 N25       30.24S WCI  13
PIERRE         PTSUNNY   34   9  35 NW17G26   30.30S WCI  23
CUSTER         SUNNY     25  -2  31 NW10      30.12S WCI  15
ELLSWORTH AFB  SUNNY     28  11  49 N21G28    30.24F WCI  14
PHILIP         CLOUDY    32   8  36 NW20      30.30S WCI  20
PINE RIDGE     SUNNY     35   6  29 NW8G20    30.24R WCI  29
WINNER         CLOUDY    34   5  29 NW16G28   30.30R WCI  24
$$

SDZ004>011-016>023-039-040-012300-
NORTHEAST SOUTH DAKOTA

CITY           SKY/WX    TMP DP  RH WIND       PRES   REMARKS
ABERDEEN       PTSUNNY   29  17  61 NW20      30.32R WCI  16
WATERTOWN      FLURRIES  25  15  66 NW18      30.25R WCI  11
$$

SDZ017-020-022-023-036>040-048>070-012300-
SOUTHEAST SOUTH DAKOTA

CITY           SKY/WX    TMP DP  RH WIND       PRES   REMARKS
SIOUX FALLS    PTSUNNY   32  15  49 NW16      30.29R WCI  21
HURON          CLOUDY    29  18  63 NW21G26   30.32R WCI  16
CHAMBERLAIN    CLOUDY    34   7  31 NW18G25   30.31R WCI  23
MITCHELL       CLOUDY    34  11  38 NW24      30.32S WCI  21
YANKTON        SUNNY    N/A N/A N/A NW25      30.31F
$$

ABBREVIATIONS USED IN REMARKS
   TC - TEMPERATURE IN CELSIUS
  WCI - WIND CHILL INDEX
   HX - HEAT INDEX
  VSB - VISIBILITY



USA.gov is the U.S. government's official web portal to all federal, state and local government web resources and services.